Time,TemperatureF,DewpointF,PressureIn,WindDirection,WindDirectionDegrees,WindSpeedMPH,WindSpeedGustMPH,Humidity,HourlyPrecipIn,Conditions,Clouds,dailyrainin,SoftwareType,DateUTC
2014-01-03 00:01:00,12.7,8.6,29.85,East,90,1.6,1.6,83,0.00,,,0.00,meteobridge,2014-01-03 05:01:00,
2014-01-03 00:02:00,12.7,8.6,29.86,West,270,1.6,1.6,83,0.00,,,0.00,meteobridge,2014-01-03 05:02:00,
2014-01-03 00:03:00,12.7,8.6,29.86,NE,45,2.2,2.2,83,0.00,,,0.00,meteobridge,2014-01-03 05:03:00,
2014-01-03 00:08:00,12.6,8.4,29.86,SE,135,0.7,3.8,83,0.00,,,0.00,meteobridge,2014-01-03 05:08:00,
2014-01-03 00:13:00,12.6,8.4,29.86,North,0,3.1,3.1,83,0.00,,,0.00,meteobridge,2014-01-03 05:13:00,
2014-01-03 00:18:00,12.4,8.2,29.88,NW,315,1.6,3.8,83,0.00,,,0.00,meteobridge,2014-01-03 05:18:00,
2014-01-03 00:23:00,12.4,8.2,29.88,West,270,0.7,0.7,83,0.00,,,0.00,meteobridge,2014-01-03 05:23:00,
2014-01-03 00:28:00,11.7,7.7,29.89,East,90,1.6,1.6,84,0.00,,,0.00,meteobridge,2014-01-03 05:28:00,
2014-01-03 00:34:00,10.8,6.6,29.89,East,90,1.6,1.6,83,0.00,,,0.00,meteobridge,2014-01-03 05:34:00,
2014-01-03 00:39:00,10.6,6.4,29.90,NE,45,0.0,2.2,83,0.00,,,0.00,meteobridge,2014-01-03 05:39:00,
2014-01-03 00:44:00,10.4,6.3,29.89,West,270,0.7,1.6,83,0.00,,,0.00,meteobridge,2014-01-03 05:44:00,
2014-01-03 00:49:00,10.2,4.8,29.90,North,0,1.6,2.2,78,0.00,,,0.00,meteobridge,2014-01-03 05:49:00,
2014-01-03 00:54:00,9.9,4.5,29.90,East,90,1.6,1.6,78,0.00,,,0.00,meteobridge,2014-01-03 05:54:00,
2014-01-03 00:59:00,9.5,4.1,29.91,West,270,0.7,1.6,78,0.00,,,0.00,meteobridge,2014-01-03 05:59:00,
2014-01-03 01:05:00,9.5,4.1,29.91,West,270,0.7,0.7,78,0.00,,,0.00,meteobridge,2014-01-03 06:05:00,
2014-01-03 01:10:00,9.3,3.9,29.90,East,90,0.7,2.2,78,0.00,,,0.00,meteobridge,2014-01-03 06:10:00,
2014-01-03 01:15:00,9.3,3.9,29.90,West,270,0.7,0.7,78,0.00,,,0.00,meteobridge,2014-01-03 06:15:00,
2014-01-03 01:20:00,9.3,3.6,29.91,West,270,0.7,0.7,77,0.00,,,0.00,meteobridge,2014-01-03 06:20:00,
2014-01-03 01:25:00,9.1,3.4,29.91,South,180,1.6,2.2,77,0.00,,,0.00,meteobridge,2014-01-03 06:25:00,
2014-01-03 01:30:00,9.3,3.6,29.91,SE,135,0.7,0.7,77,0.00,,,0.00,meteobridge,2014-01-03 06:30:00,
2014-01-03 01:36:00,9.3,3.6,29.92,West,270,1.6,1.6,77,0.00,,,0.00,meteobridge,2014-01-03 06:36:00,
2014-01-03 01:41:00,9.1,3.4,29.92,West,270,1.6,1.6,77,0.00,,,0.00,meteobridge,2014-01-03 06:41:00,
2014-01-03 01:46:00,9.3,3.6,29.93,South,180,0.0,0.7,77,0.00,,,0.00,meteobridge,2014-01-03 06:46:00,
2014-01-03 01:51:00,9.1,3.4,29.92,SE,135,1.6,1.6,77,0.00,,,0.00,meteobridge,2014-01-03 06:51:00,
2014-01-03 01:56:00,9.1,3.4,29.93,East,90,0.0,1.6,77,0.00,,,0.00,meteobridge,2014-01-03 06:56:00,
2014-01-03 02:02:00,8.8,3.0,29.93,East,90,0.0,0.0,77,0.00,,,0.00,meteobridge,2014-01-03 07:02:00,
2014-01-03 02:07:00,8.1,2.3,29.94,North,0,0.7,1.6,77,0.00,,,0.00,meteobridge,2014-01-03 07:07:00,
2014-01-03 02:12:00,8.1,2.3,29.94,West,270,0.7,0.7,77,0.00,,,0.00,meteobridge,2014-01-03 07:12:00,
2014-01-03 02:17:00,8.1,2.3,29.94,West,270,3.1,3.8,77,0.00,,,0.00,meteobridge,2014-01-03 07:17:00,
2014-01-03 02:22:00,7.7,1.8,29.94,North,0,0.7,0.7,76,0.00,,,0.00,meteobridge,2014-01-03 07:22:00,
2014-01-03 02:27:00,7.9,1.9,29.95,West,270,0.0,0.0,76,0.00,,,0.00,meteobridge,2014-01-03 07:27:00,
2014-01-03 02:33:00,7.9,1.9,29.96,West,270,0.0,0.7,76,0.00,,,0.00,meteobridge,2014-01-03 07:33:00,
2014-01-03 02:38:00,7.9,1.9,29.96,East,90,0.0,0.7,76,0.00,,,0.00,meteobridge,2014-01-03 07:38:00,
2014-01-03 02:43:00,7.9,1.9,29.96,East,90,3.1,3.1,76,0.00,,,0.00,meteobridge,2014-01-03 07:43:00,
2014-01-03 02:48:00,7.9,1.9,29.97,East,90,0.0,0.7,76,0.00,,,0.00,meteobridge,2014-01-03 07:48:00,
2014-01-03 02:53:00,7.9,1.9,29.97,West,270,0.7,0.7,76,0.00,,,0.00,meteobridge,2014-01-03 07:53:00,
2014-01-03 02:58:00,7.7,1.8,29.96,SW,225,3.1,3.1,76,0.00,,,0.00,meteobridge,2014-01-03 07:58:00,
2014-01-03 03:04:00,7.7,1.8,29.96,South,180,0.0,0.0,76,0.00,,,0.00,meteobridge,2014-01-03 08:04:00,
2014-01-03 03:09:00,7.7,1.8,29.98,West,270,0.0,0.0,76,0.00,,,0.00,meteobridge,2014-01-03 08:09:00,
2014-01-03 03:14:00,7.9,1.9,29.98,NE,45,0.0,0.0,76,0.00,,,0.00,meteobridge,2014-01-03 08:14:00,
2014-01-03 03:19:00,7.5,1.6,29.98,West,270,0.0,0.7,76,0.00,,,0.00,meteobridge,2014-01-03 08:19:00,
2014-01-03 03:24:00,7.7,1.8,29.98,West,270,0.0,0.7,76,0.00,,,0.00,meteobridge,2014-01-03 08:24:00,
2014-01-03 03:29:00,7.5,1.6,29.99,West,270,0.7,0.7,76,0.00,,,0.00,meteobridge,2014-01-03 08:29:00,
2014-01-03 03:35:00,7.3,1.4,29.98,West,270,1.6,1.6,76,0.00,,,0.00,meteobridge,2014-01-03 08:35:00,
2014-01-03 03:40:00,7.2,0.9,29.98,West,270,0.0,0.7,75,0.00,,,0.00,meteobridge,2014-01-03 08:40:00,
2014-01-03 03:45:00,7.2,0.9,29.99,West,270,2.2,2.2,75,0.00,,,0.00,meteobridge,2014-01-03 08:45:00,
2014-01-03 03:50:00,7.2,0.9,29.99,South,180,1.6,1.6,75,0.00,,,0.00,meteobridge,2014-01-03 08:50:00,
2014-01-03 03:55:00,7.0,0.7,29.98,NW,315,0.7,3.1,75,0.00,,,0.00,meteobridge,2014-01-03 08:55:00,
2014-01-03 04:00:00,7.0,0.7,30.00,North,0,0.7,2.2,75,0.00,,,0.00,meteobridge,2014-01-03 09:00:00,
2014-01-03 04:06:00,7.0,0.7,30.00,West,270,0.0,0.0,75,0.00,,,0.00,meteobridge,2014-01-03 09:06:00,
2014-01-03 04:11:00,7.2,0.9,30.01,NW,315,0.0,0.7,75,0.00,,,0.00,meteobridge,2014-01-03 09:11:00,
2014-01-03 04:16:00,6.8,0.5,30.01,West,270,0.7,1.6,75,0.00,,,0.00,meteobridge,2014-01-03 09:16:00,
2014-01-03 04:21:00,6.8,0.3,30.01,SW,225,1.6,1.6,74,0.00,,,0.00,meteobridge,2014-01-03 09:21:00,
2014-01-03 04:26:00,6.6,0.3,30.01,East,90,0.7,0.7,75,0.00,,,0.00,meteobridge,2014-01-03 09:26:00,
2014-01-03 04:31:00,6.4,0.1,30.01,NW,315,0.7,0.7,75,0.00,,,0.00,meteobridge,2014-01-03 09:31:00,
2014-01-03 04:37:00,5.9,-0.6,30.01,East,90,0.7,3.8,74,0.00,,,0.00,meteobridge,2014-01-03 09:37:00,
2014-01-03 04:42:00,6.1,-0.4,30.02,West,270,0.7,0.7,74,0.00,,,0.00,meteobridge,2014-01-03 09:42:00,
2014-01-03 04:47:00,6.1,-0.4,30.03,West,270,0.7,0.7,74,0.00,,,0.00,meteobridge,2014-01-03 09:47:00,
2014-01-03 04:52:00,6.3,-0.2,30.03,West,270,0.0,1.6,74,0.00,,,0.00,meteobridge,2014-01-03 09:52:00,
2014-01-03 04:57:00,5.7,-0.8,30.03,West,270,0.7,2.2,74,0.00,,,0.00,meteobridge,2014-01-03 09:57:00,
2014-01-03 05:02:00,5.7,-0.8,30.03,East,90,1.6,1.6,74,0.00,,,0.00,meteobridge,2014-01-03 10:02:00,
2014-01-03 05:08:00,5.7,-1.1,30.04,West,270,0.0,1.6,73,0.00,,,0.00,meteobridge,2014-01-03 10:08:00,
2014-01-03 05:13:00,5.7,-1.1,30.03,West,270,0.7,1.6,73,0.00,,,0.00,meteobridge,2014-01-03 10:13:00,
2014-01-03 05:18:00,5.7,-1.1,30.04,West,270,0.0,0.0,73,0.00,,,0.00,meteobridge,2014-01-03 10:18:00,
2014-01-03 05:23:00,5.5,-1.3,30.04,West,270,0.0,0.7,73,0.00,,,0.00,meteobridge,2014-01-03 10:23:00,
2014-01-03 05:28:00,5.5,-1.3,30.04,West,270,0.0,1.6,73,0.00,,,0.00,meteobridge,2014-01-03 10:28:00,
2014-01-03 05:33:00,5.5,-1.3,30.05,West,270,0.7,0.7,73,0.00,,,0.00,meteobridge,2014-01-03 10:33:00,
2014-01-03 05:39:00,5.5,-1.3,30.05,East,90,0.7,1.6,73,0.00,,,0.00,meteobridge,2014-01-03 10:39:00,
2014-01-03 05:44:00,5.4,-1.5,30.06,West,270,0.7,0.7,73,0.00,,,0.00,meteobridge,2014-01-03 10:44:00,
2014-01-03 05:49:00,5.4,-1.5,30.06,West,270,2.2,2.2,73,0.00,,,0.00,meteobridge,2014-01-03 10:49:00,
2014-01-03 05:54:00,5.5,-1.3,30.07,West,270,0.0,0.7,73,0.00,,,0.00,meteobridge,2014-01-03 10:54:00,
2014-01-03 05:59:00,5.5,-1.3,30.06,NW,315,0.0,0.7,73,0.00,,,0.00,meteobridge,2014-01-03 10:59:00,
2014-01-03 06:04:00,5.5,-1.3,30.06,West,270,0.0,0.0,73,0.00,,,0.00,meteobridge,2014-01-03 11:04:00,
2014-01-03 06:10:00,5.5,-1.3,30.07,West,270,0.0,0.0,73,0.00,,,0.00,meteobridge,2014-01-03 11:10:00,
2014-01-03 06:15:00,5.4,-1.5,30.07,West,270,0.0,0.7,73,0.00,,,0.00,meteobridge,2014-01-03 11:15:00,
2014-01-03 06:20:00,5.4,-1.5,30.07,West,270,1.6,1.6,73,0.00,,,0.00,meteobridge,2014-01-03 11:20:00,
2014-01-03 06:25:00,5.4,-1.5,30.08,North,0,0.7,0.7,73,0.00,,,0.00,meteobridge,2014-01-03 11:25:00,
2014-01-03 06:30:00,5.5,-1.3,30.08,West,270,1.6,1.6,73,0.00,,,0.00,meteobridge,2014-01-03 11:30:00,
2014-01-03 06:35:00,5.5,-1.3,30.07,West,270,0.7,0.7,73,0.00,,,0.00,meteobridge,2014-01-03 11:35:00,
2014-01-03 06:41:00,5.4,-1.5,30.09,NW,315,0.7,0.7,73,0.00,,,0.00,meteobridge,2014-01-03 11:41:00,
2014-01-03 06:46:00,5.4,-1.5,30.09,West,270,0.7,1.6,73,0.00,,,0.00,meteobridge,2014-01-03 11:46:00,
2014-01-03 06:51:00,5.2,-1.8,30.08,West,270,1.6,1.6,72,0.00,,,0.00,meteobridge,2014-01-03 11:51:00,
2014-01-03 06:56:00,5.0,-2.0,30.09,SW,225,0.7,0.7,72,0.00,,,0.00,meteobridge,2014-01-03 11:56:00,
2014-01-03 07:01:00,5.0,-2.0,30.08,West,270,1.6,1.6,72,0.00,,,0.00,meteobridge,2014-01-03 12:01:00,
2014-01-03 07:06:00,5.0,-2.0,30.09,West,270,1.6,1.6,72,0.00,,,0.00,meteobridge,2014-01-03 12:06:00,
2014-01-03 07:12:00,5.0,-2.0,30.09,West,270,0.0,0.7,72,0.00,,,0.00,meteobridge,2014-01-03 12:12:00,
2014-01-03 07:17:00,5.0,-2.0,30.09,West,270,0.7,0.7,72,0.00,,,0.00,meteobridge,2014-01-03 12:17:00,
2014-01-03 07:22:00,5.2,-1.7,30.10,West,270,0.7,0.7,73,0.00,,,0.00,meteobridge,2014-01-03 12:22:00,
2014-01-03 07:27:00,5.2,-1.7,30.10,West,270,0.0,0.7,73,0.00,,,0.00,meteobridge,2014-01-03 12:27:00,
2014-01-03 07:32:00,5.0,-1.8,30.09,West,270,0.7,0.7,73,0.00,,,0.00,meteobridge,2014-01-03 12:32:00,
2014-01-03 07:38:00,5.0,-2.0,30.09,West,270,0.0,0.7,72,0.00,,,0.00,meteobridge,2014-01-03 12:38:00,
2014-01-03 07:43:00,4.8,-1.8,30.09,SE,135,0.7,0.7,73,0.00,,,0.00,meteobridge,2014-01-03 12:43:00,
2014-01-03 07:48:00,4.6,-2.0,30.09,NW,315,0.7,1.6,73,0.00,,,0.00,meteobridge,2014-01-03 12:48:00,
2014-01-03 07:53:00,4.8,-1.8,30.08,South,180,0.7,2.2,73,0.00,,,0.00,meteobridge,2014-01-03 12:53:00,
2014-01-03 07:58:00,4.6,-2.0,30.09,West,270,0.7,0.7,73,0.00,,,0.00,meteobridge,2014-01-03 12:58:00,
2014-01-03 08:03:00,4.6,-2.0,30.10,NW,315,1.6,2.2,73,0.00,,,0.00,meteobridge,2014-01-03 13:03:00,
2014-01-03 08:09:00,4.6,-2.0,30.11,West,270,0.7,1.6,73,0.00,,,0.00,meteobridge,2014-01-03 13:09:00,
2014-01-03 08:14:00,4.6,-2.0,30.12,SW,225,1.6,1.6,73,0.00,,,0.00,meteobridge,2014-01-03 13:14:00,
2014-01-03 08:19:00,4.8,-1.8,30.12,West,270,3.8,3.8,73,0.00,,,0.00,meteobridge,2014-01-03 13:19:00,
2014-01-03 08:24:00,5.0,-2.0,30.12,East,90,5.4,5.4,72,0.00,,,0.00,meteobridge,2014-01-03 13:24:00,
2014-01-03 08:29:00,5.0,-2.0,30.11,NE,45,4.5,7.6,72,0.00,,,0.00,meteobridge,2014-01-03 13:29:00,
2014-01-03 08:34:00,5.0,-2.4,30.11,West,270,6.0,6.0,71,0.00,,,0.00,meteobridge,2014-01-03 13:34:00,
2014-01-03 08:40:00,5.4,-2.0,30.11,SW,225,6.0,6.0,71,0.00,,,0.00,meteobridge,2014-01-03 13:40:00,
2014-01-03 08:45:00,5.9,-1.5,30.10,SW,225,1.6,7.6,71,0.00,,,0.00,meteobridge,2014-01-03 13:45:00,
2014-01-03 08:50:00,7.0,-0.4,30.10,West,270,3.8,8.3,71,0.00,,,0.00,meteobridge,2014-01-03 13:50:00,
2014-01-03 08:55:00,7.2,-0.6,30.10,West,270,6.0,9.2,70,0.00,,,0.00,meteobridge,2014-01-03 13:55:00,
2014-01-03 09:00:00,9.1,1.0,30.11,North,0,3.8,3.8,69,0.00,,,0.00,meteobridge,2014-01-03 14:00:00,
2014-01-03 09:05:00,9.1,1.0,30.11,North,0,3.8,3.8,69,0.00,,,0.00,meteobridge,2014-01-03 14:05:00,
2014-01-03 09:11:00,11.3,4.3,30.12,NE,45,3.1,3.8,73,0.00,,,0.00,meteobridge,2014-01-03 14:11:00,
2014-01-03 09:16:00,13.5,6.1,30.13,West,270,3.8,4.5,72,0.00,,,0.00,meteobridge,2014-01-03 14:16:00,
2014-01-03 09:21:00,10.6,3.4,30.13,West,270,0.7,3.8,72,0.00,,,0.00,meteobridge,2014-01-03 14:21:00,
2014-01-03 09:26:00,12.6,4.6,30.14,West,270,0.0,2.2,70,0.00,,,0.00,meteobridge,2014-01-03 14:26:00,
2014-01-03 09:31:00,14.5,6.6,30.15,West,270,2.2,3.8,70,0.00,,,0.00,meteobridge,2014-01-03 14:31:00,
2014-01-03 09:36:00,15.8,6.8,30.16,East,90,1.6,6.0,67,0.00,,,0.00,meteobridge,2014-01-03 14:36:00,
2014-01-03 09:42:00,15.3,6.3,30.16,SW,225,4.5,4.5,67,0.00,,,0.00,meteobridge,2014-01-03 14:42:00,
2014-01-03 09:47:00,10.2,0.1,30.17,West,270,3.1,6.0,63,0.00,,,0.00,meteobridge,2014-01-03 14:47:00,
2014-01-03 09:52:00,11.3,2.8,30.17,East,90,3.1,4.5,68,0.00,,,0.00,meteobridge,2014-01-03 14:52:00,
2014-01-03 09:57:00,10.8,2.3,30.18,West,270,6.0,6.0,68,0.00,,,0.00,meteobridge,2014-01-03 14:57:00,
2014-01-03 10:02:00,11.5,3.0,30.18,West,270,2.2,5.4,68,0.00,,,0.00,meteobridge,2014-01-03 15:02:00,
2014-01-03 10:07:00,9.1,-1.3,30.18,NW,315,4.5,6.0,62,0.00,,,0.00,meteobridge,2014-01-03 15:07:00,
2014-01-03 10:13:00,12.4,3.6,30.20,South,180,4.5,4.5,67,0.00,,,0.00,meteobridge,2014-01-03 15:13:00,
2014-01-03 10:18:00,10.6,1.8,30.20,North,0,3.1,4.5,67,0.00,,,0.00,meteobridge,2014-01-03 15:18:00,
2014-01-03 10:23:00,13.8,4.3,30.20,West,270,3.1,6.9,65,0.00,,,0.00,meteobridge,2014-01-03 15:23:00,
2014-01-03 10:28:00,15.3,5.4,30.21,SW,225,7.6,7.6,64,0.00,,,0.00,meteobridge,2014-01-03 15:28:00,
2014-01-03 10:33:00,14.5,4.3,30.22,West,270,4.5,4.5,63,0.00,,,0.00,meteobridge,2014-01-03 15:33:00,
2014-01-03 10:38:00,15.8,4.8,30.22,SW,225,4.5,4.5,61,0.00,,,0.00,meteobridge,2014-01-03 15:38:00,
2014-01-03 10:44:00,15.4,4.5,30.21,West,270,5.4,6.9,61,0.00,,,0.00,meteobridge,2014-01-03 15:44:00,
2014-01-03 10:49:00,15.6,4.3,30.21,West,270,3.8,3.8,60,0.00,,,0.00,meteobridge,2014-01-03 15:49:00,
2014-01-03 10:54:00,13.6,2.7,30.21,South,180,2.2,8.3,61,0.00,,,0.00,meteobridge,2014-01-03 15:54:00,
2014-01-03 10:59:00,13.5,1.8,30.21,East,90,3.1,8.3,59,0.00,,,0.00,meteobridge,2014-01-03 15:59:00,
2014-01-03 11:04:00,15.8,4.1,30.21,North,0,6.9,6.9,59,0.00,,,0.00,meteobridge,2014-01-03 16:04:00,
2014-01-03 11:09:00,13.6,2.3,30.22,South,180,3.8,6.0,60,0.00,,,0.00,meteobridge,2014-01-03 16:09:00,
2014-01-03 11:15:00,16.7,4.8,30.22,West,270,3.1,3.1,59,0.00,,,0.00,meteobridge,2014-01-03 16:15:00,
2014-01-03 11:20:00,17.6,4.1,30.23,South,180,3.1,3.1,55,0.00,,,0.00,meteobridge,2014-01-03 16:20:00,
2014-01-03 11:25:00,17.6,4.1,30.23,West,270,3.1,3.8,55,0.00,,,0.00,meteobridge,2014-01-03 16:25:00,
2014-01-03 11:30:00,17.4,4.1,30.23,West,270,2.2,2.2,55,0.00,,,0.00,meteobridge,2014-01-03 16:30:00,
2014-01-03 11:35:00,16.0,1.4,30.23,West,270,4.5,5.4,52,0.00,,,0.00,meteobridge,2014-01-03 16:35:00,
2014-01-03 11:40:00,16.9,2.3,30.24,West,270,1.6,3.1,52,0.00,,,0.00,meteobridge,2014-01-03 16:40:00,
2014-01-03 11:46:00,18.7,3.2,30.24,West,270,0.0,3.1,50,0.00,,,0.00,meteobridge,2014-01-03 16:46:00,
2014-01-03 11:51:00,19.2,2.7,30.24,South,180,1.6,1.6,48,0.00,,,0.00,meteobridge,2014-01-03 16:51:00,
2014-01-03 11:56:00,14.5,-2.0,30.25,West,270,5.4,5.4,47,0.00,,,0.00,meteobridge,2014-01-03 16:56:00,
2014-01-03 12:01:00,15.3,0.0,30.25,East,90,2.2,3.8,50,0.00,,,0.00,meteobridge,2014-01-03 17:01:00,
2014-01-03 12:06:00,19.8,5.4,30.25,West,270,2.2,3.1,53,0.00,,,0.00,meteobridge,2014-01-03 17:06:00,
2014-01-03 12:11:00,18.0,1.0,30.25,North,0,3.8,5.4,47,0.00,,,0.00,meteobridge,2014-01-03 17:11:00,
2014-01-03 12:17:00,20.7,4.1,30.24,West,270,2.2,4.5,48,0.00,,,0.00,meteobridge,2014-01-03 17:17:00,
2014-01-03 12:22:00,19.9,3.4,30.25,East,90,2.2,4.5,48,0.00,,,0.00,meteobridge,2014-01-03 17:22:00,
2014-01-03 12:27:00,18.0,-0.8,30.25,NE,45,4.5,4.5,43,0.00,,,0.00,meteobridge,2014-01-03 17:27:00,
2014-01-03 12:32:00,16.5,-2.6,30.25,West,270,5.4,5.4,42,0.00,,,0.00,meteobridge,2014-01-03 17:32:00,
2014-01-03 12:37:00,19.2,0.3,30.25,South,180,1.6,4.5,43,0.00,,,0.00,meteobridge,2014-01-03 17:37:00,
2014-01-03 12:42:00,19.2,0.9,30.25,NW,315,3.1,3.1,44,0.01,,,0.01,meteobridge,2014-01-03 17:42:00,
2014-01-03 12:48:00,18.0,-0.8,30.25,East,90,4.5,5.4,43,0.01,,,0.01,meteobridge,2014-01-03 17:48:00,
2014-01-03 12:53:00,20.3,4.1,30.25,SE,135,2.2,3.8,49,0.01,,,0.01,meteobridge,2014-01-03 17:53:00,
2014-01-03 12:58:00,20.5,3.9,30.25,West,270,1.6,1.6,48,0.01,,,0.01,meteobridge,2014-01-03 17:58:00,
2014-01-03 13:03:00,22.6,5.0,30.25,West,270,2.2,2.2,46,0.01,,,0.01,meteobridge,2014-01-03 18:03:00,
2014-01-03 13:08:00,20.7,3.2,30.25,West,270,3.1,3.8,46,0.01,,,0.01,meteobridge,2014-01-03 18:08:00,
2014-01-03 13:13:00,21.9,3.7,30.25,West,270,3.8,3.8,45,0.01,,,0.01,meteobridge,2014-01-03 18:13:00,
2014-01-03 13:19:00,20.8,2.8,30.25,NE,45,4.5,4.5,45,0.01,,,0.01,meteobridge,2014-01-03 18:19:00,
2014-01-03 13:24:00,20.7,1.8,30.25,West,270,1.6,2.2,43,0.01,,,0.01,meteobridge,2014-01-03 18:24:00,
2014-01-03 13:29:00,19.9,0.5,30.25,North,0,2.2,3.1,42,0.01,,,0.01,meteobridge,2014-01-03 18:29:00,
2014-01-03 13:34:00,18.9,-2.6,30.25,West,270,0.7,3.8,38,0.01,,,0.01,meteobridge,2014-01-03 18:34:00,
2014-01-03 13:39:00,18.0,-3.5,30.26,SE,135,3.1,5.4,38,0.00,,,0.01,meteobridge,2014-01-03 18:39:00,
2014-01-03 13:45:00,19.6,2.1,30.26,West,270,2.2,3.1,46,0.00,,,0.01,meteobridge,2014-01-03 18:45:00,
2014-01-03 13:50:00,20.8,2.3,30.26,South,180,2.2,4.5,44,0.00,,,0.01,meteobridge,2014-01-03 18:50:00,
2014-01-03 13:55:00,20.5,1.6,30.26,North,0,3.8,5.4,43,0.00,,,0.01,meteobridge,2014-01-03 18:55:00,
2014-01-03 14:00:00,19.6,1.8,30.26,South,180,2.2,2.2,45,0.00,,,0.01,meteobridge,2014-01-03 19:00:00,
2014-01-03 14:05:00,18.7,-2.2,30.25,South,180,1.6,6.0,39,0.00,,,0.01,meteobridge,2014-01-03 19:05:00,
2014-01-03 14:10:00,21.7,4.1,30.26,SE,135,1.6,1.6,46,0.00,,,0.01,meteobridge,2014-01-03 19:10:00,
2014-01-03 14:16:00,20.7,1.8,30.26,East,90,1.6,4.5,43,0.00,,,0.01,meteobridge,2014-01-03 19:16:00,
2014-01-03 14:21:00,22.8,2.7,30.26,West,270,3.1,3.1,41,0.00,,,0.01,meteobridge,2014-01-03 19:21:00,
2014-01-03 14:26:00,23.4,1.6,30.26,West,270,1.6,3.1,38,0.00,,,0.01,meteobridge,2014-01-03 19:26:00,
2014-01-03 14:31:00,21.4,-0.9,30.26,SE,135,1.6,5.4,37,0.00,,,0.01,meteobridge,2014-01-03 19:31:00,
2014-01-03 14:36:00,23.7,1.8,30.25,East,90,3.1,3.1,38,0.00,,,0.01,meteobridge,2014-01-03 19:36:00,
2014-01-03 14:41:00,22.1,0.3,30.26,South,180,5.4,5.4,38,0.00,,,0.01,meteobridge,2014-01-03 19:41:00,
2014-01-03 14:47:00,20.5,1.6,30.27,East,90,3.1,3.8,43,0.00,,,0.01,meteobridge,2014-01-03 19:47:00,
2014-01-03 14:52:00,23.4,4.1,30.27,East,90,2.2,2.2,43,0.00,,,0.01,meteobridge,2014-01-03 19:52:00,
2014-01-03 14:57:00,20.1,0.7,30.27,West,270,3.1,4.5,42,0.00,,,0.01,meteobridge,2014-01-03 19:57:00,
2014-01-03 15:02:00,20.1,0.7,30.27,NE,45,12.1,12.1,42,0.00,,,0.01,meteobridge,2014-01-03 20:02:00,
2014-01-03 15:07:00,19.0,-2.4,30.27,North,0,3.8,3.8,38,0.00,,,0.01,meteobridge,2014-01-03 20:07:00,
2014-01-03 15:12:00,22.1,1.9,30.27,SW,225,3.1,5.4,41,0.00,,,0.01,meteobridge,2014-01-03 20:12:00,
2014-01-03 15:18:00,21.9,2.3,30.27,NE,45,2.2,3.8,42,0.00,,,0.01,meteobridge,2014-01-03 20:18:00,
2014-01-03 15:23:00,22.1,2.5,30.28,West,270,3.1,3.1,42,0.00,,,0.01,meteobridge,2014-01-03 20:23:00,
2014-01-03 15:28:00,22.6,2.5,30.28,North,0,2.2,2.2,41,0.00,,,0.01,meteobridge,2014-01-03 20:28:00,
2014-01-03 15:33:00,22.1,3.6,30.27,North,0,1.6,3.1,44,0.00,,,0.01,meteobridge,2014-01-03 20:33:00,
2014-01-03 15:38:00,22.1,3.0,30.28,South,180,2.2,3.1,43,0.00,,,0.01,meteobridge,2014-01-03 20:38:00,
2014-01-03 15:43:00,20.1,0.7,30.28,West,270,1.6,5.4,42,0.00,,,0.01,meteobridge,2014-01-03 20:43:00,
2014-01-03 15:49:00,21.2,1.8,30.28,NW,315,3.1,3.1,42,0.00,,,0.01,meteobridge,2014-01-03 20:49:00,
2014-01-03 15:54:00,19.4,1.0,30.28,NE,45,2.2,3.8,44,0.00,,,0.01,meteobridge,2014-01-03 20:54:00,
2014-01-03 15:59:00,19.2,-1.1,30.28,North,0,3.8,3.8,40,0.00,,,0.01,meteobridge,2014-01-03 20:59:00,
2014-01-03 16:04:00,20.1,2.7,30.28,South,180,2.2,3.1,46,0.00,,,0.01,meteobridge,2014-01-03 21:04:00,
2014-01-03 16:09:00,19.8,2.8,30.28,North,0,1.6,1.6,47,0.00,,,0.01,meteobridge,2014-01-03 21:09:00,
2014-01-03 16:14:00,20.1,3.2,30.28,South,180,1.6,1.6,47,0.00,,,0.01,meteobridge,2014-01-03 21:14:00,
2014-01-03 16:20:00,18.7,0.3,30.29,West,270,3.1,3.1,44,0.00,,,0.01,meteobridge,2014-01-03 21:20:00,
2014-01-03 16:25:00,17.4,-0.8,30.29,West,270,2.2,4.5,44,0.00,,,0.01,meteobridge,2014-01-03 21:25:00,
2014-01-03 16:30:00,18.1,0.0,30.29,South,180,0.0,0.0,44,0.00,,,0.01,meteobridge,2014-01-03 21:30:00,
2014-01-03 16:35:00,18.3,0.5,30.29,South,180,0.0,1.6,45,0.00,,,0.01,meteobridge,2014-01-03 21:35:00,
2014-01-03 16:40:00,17.8,0.0,30.29,East,90,0.0,3.1,45,0.00,,,0.01,meteobridge,2014-01-03 21:40:00,
2014-01-03 16:45:00,17.4,1.6,30.29,West,270,0.0,1.6,49,0.00,,,0.01,meteobridge,2014-01-03 21:45:00,
2014-01-03 16:51:00,16.2,0.3,30.29,West,270,0.7,0.7,49,0.00,,,0.01,meteobridge,2014-01-03 21:51:00,
2014-01-03 16:56:00,15.4,0.5,30.28,East,90,0.7,1.6,51,0.00,,,0.01,meteobridge,2014-01-03 21:56:00,
2014-01-03 17:01:00,15.3,0.9,30.28,North,0,0.7,0.7,52,0.00,,,0.01,meteobridge,2014-01-03 22:01:00,
2014-01-03 17:06:00,14.5,0.5,30.29,West,270,3.1,3.1,53,0.00,,,0.01,meteobridge,2014-01-03 22:06:00,
2014-01-03 17:11:00,14.4,0.0,30.28,East,90,0.0,0.0,52,0.00,,,0.01,meteobridge,2014-01-03 22:11:00,
2014-01-03 17:16:00,14.4,0.3,30.28,East,90,0.0,0.0,53,0.00,,,0.01,meteobridge,2014-01-03 22:16:00,
2014-01-03 17:22:00,14.4,0.3,30.29,East,90,0.0,0.0,53,0.00,,,0.01,meteobridge,2014-01-03 22:22:00,
2014-01-03 17:27:00,14.0,0.9,30.28,North,0,0.0,0.0,55,0.00,,,0.01,meteobridge,2014-01-03 22:27:00,
2014-01-03 17:32:00,11.8,-0.4,30.28,South,180,0.0,0.7,57,0.00,,,0.01,meteobridge,2014-01-03 22:32:00,
2014-01-03 17:37:00,12.0,0.5,30.28,South,180,0.0,0.0,59,0.00,,,0.01,meteobridge,2014-01-03 22:37:00,
2014-01-03 17:42:00,10.9,0.5,30.28,South,180,0.0,0.0,62,0.00,,,0.01,meteobridge,2014-01-03 22:42:00,
2014-01-03 17:47:00,11.3,1.6,30.28,South,180,0.7,0.7,64,0.00,,,0.01,meteobridge,2014-01-03 22:47:00,
2014-01-03 17:53:00,11.3,1.8,30.28,South,180,0.0,0.0,65,0.00,,,0.01,meteobridge,2014-01-03 22:53:00,
2014-01-03 17:58:00,11.5,1.9,30.29,South,180,0.0,0.0,65,0.00,,,0.01,meteobridge,2014-01-03 22:58:00,
2014-01-03 18:03:00,10.8,1.9,30.29,South,180,0.0,0.0,67,0.00,,,0.01,meteobridge,2014-01-03 23:03:00,
2014-01-03 18:08:00,9.9,0.1,30.29,South,180,0.0,0.0,64,0.00,,,0.01,meteobridge,2014-01-03 23:08:00,
2014-01-03 18:13:00,9.5,0.1,30.29,South,180,0.0,0.0,65,0.00,,,0.01,meteobridge,2014-01-03 23:13:00,
2014-01-03 18:18:00,9.1,0.1,30.29,South,180,0.7,0.7,66,0.00,,,0.01,meteobridge,2014-01-03 23:18:00,
2014-01-03 18:24:00,9.1,0.7,30.29,South,180,0.0,0.0,68,0.00,,,0.01,meteobridge,2014-01-03 23:24:00,
2014-01-03 18:29:00,9.3,0.9,30.29,South,180,0.0,0.0,68,0.00,,,0.01,meteobridge,2014-01-03 23:29:00,
2014-01-03 18:34:00,8.8,0.3,30.29,South,180,0.0,0.0,68,0.00,,,0.01,meteobridge,2014-01-03 23:34:00,
2014-01-03 18:39:00,9.0,0.5,30.29,West,270,0.0,0.0,68,0.00,,,0.01,meteobridge,2014-01-03 23:39:00,
2014-01-03 18:44:00,9.7,1.6,30.29,West,270,0.0,0.0,69,0.00,,,0.01,meteobridge,2014-01-03 23:44:00,
2014-01-03 18:49:00,9.7,1.6,30.29,West,270,0.0,0.0,69,0.00,,,0.01,meteobridge,2014-01-03 23:49:00,
2014-01-03 18:55:00,9.3,1.2,30.29,East,90,0.0,0.0,69,0.00,,,0.01,meteobridge,2014-01-03 23:55:00,
2014-01-03 19:00:00,8.1,0.3,30.29,South,180,0.0,0.7,70,0.00,,,0.00,meteobridge,2014-01-04 00:00:00,
2014-01-03 19:05:00,8.1,0.3,30.29,South,180,0.0,0.0,70,0.00,,,0.00,meteobridge,2014-01-04 00:05:00,
2014-01-03 19:10:00,8.8,1.0,30.29,East,90,0.0,1.6,70,0.00,,,0.00,meteobridge,2014-01-04 00:10:00,
2014-01-03 19:15:00,8.8,1.0,30.29,West,270,0.0,0.0,70,0.00,,,0.00,meteobridge,2014-01-04 00:15:00,
2014-01-03 19:20:00,9.0,1.2,30.29,West,270,0.0,0.0,70,0.00,,,0.00,meteobridge,2014-01-04 00:20:00,
2014-01-03 19:25:00,8.1,0.7,30.30,South,180,0.7,0.7,71,0.00,,,0.00,meteobridge,2014-01-04 00:25:00,
2014-01-03 19:30:00,7.2,-0.6,30.30,South,180,0.0,0.7,70,0.00,,,0.00,meteobridge,2014-01-04 00:30:00,
2014-01-03 19:35:00,7.3,0.0,30.30,West,270,0.0,0.0,71,0.00,,,0.00,meteobridge,2014-01-04 00:35:00,
2014-01-03 19:40:00,7.2,-0.2,30.30,South,180,0.7,0.7,71,0.00,,,0.00,meteobridge,2014-01-04 00:40:00,
2014-01-03 19:45:00,6.6,-0.4,30.30,South,180,0.7,1.6,72,0.00,,,0.00,meteobridge,2014-01-04 00:45:00,
2014-01-03 19:51:00,6.6,-0.4,30.29,South,180,0.0,0.0,72,0.00,,,0.00,meteobridge,2014-01-04 00:51:00,
2014-01-03 19:56:00,6.8,-0.2,30.30,South,180,0.0,0.0,72,0.00,,,0.00,meteobridge,2014-01-04 00:56:00,
2014-01-03 20:01:00,6.4,-0.4,30.30,South,180,0.0,0.0,73,0.00,,,0.00,meteobridge,2014-01-04 01:01:00,
2014-01-03 20:06:00,6.3,-0.6,30.29,South,180,1.6,2.2,73,0.00,,,0.00,meteobridge,2014-01-04 01:06:00,
2014-01-03 20:11:00,7.7,0.5,30.29,East,90,2.2,2.2,72,0.00,,,0.00,meteobridge,2014-01-04 01:11:00,
2014-01-03 20:16:00,7.3,0.1,30.29,South,180,0.0,0.7,72,0.00,,,0.00,meteobridge,2014-01-04 01:16:00,
2014-01-03 20:22:00,7.0,-0.2,30.29,South,180,0.0,0.0,72,0.00,,,0.00,meteobridge,2014-01-04 01:22:00,
2014-01-03 20:27:00,6.4,-0.6,30.29,South,180,1.6,1.6,72,0.00,,,0.00,meteobridge,2014-01-04 01:27:00,
2014-01-03 20:32:00,6.4,-0.6,30.29,South,180,1.6,1.6,72,0.00,,,0.00,meteobridge,2014-01-04 01:32:00,
2014-01-03 20:37:00,6.6,-0.2,30.29,South,180,0.0,0.0,73,0.00,,,0.00,meteobridge,2014-01-04 01:37:00,
2014-01-03 20:42:00,6.6,-0.2,30.29,South,180,0.0,0.0,73,0.00,,,0.00,meteobridge,2014-01-04 01:42:00,
2014-01-03 20:47:00,6.8,-0.2,30.30,South,180,0.0,0.0,72,0.00,,,0.00,meteobridge,2014-01-04 01:47:00,
2014-01-03 20:53:00,6.4,-0.4,30.30,South,180,0.7,0.7,73,0.00,,,0.00,meteobridge,2014-01-04 01:53:00,
2014-01-03 20:58:00,6.4,-0.4,30.30,South,180,0.0,0.0,73,0.00,,,0.00,meteobridge,2014-01-04 01:58:00,
2014-01-03 21:03:00,6.4,-0.4,30.31,South,180,0.0,0.0,73,0.00,,,0.00,meteobridge,2014-01-04 02:03:00,
2014-01-03 21:08:00,6.4,-0.4,30.30,South,180,0.7,1.6,73,0.00,,,0.00,meteobridge,2014-01-04 02:08:00,
2014-01-03 21:13:00,6.3,-0.6,30.30,South,180,0.0,0.0,73,0.00,,,0.00,meteobridge,2014-01-04 02:13:00,
2014-01-03 21:18:00,6.3,-0.6,30.31,West,270,0.0,0.7,73,0.00,,,0.00,meteobridge,2014-01-04 02:18:00,
2014-01-03 21:24:00,6.4,-0.4,30.31,South,180,0.0,0.0,73,0.00,,,0.00,meteobridge,2014-01-04 02:24:00,
2014-01-03 21:29:00,6.4,-0.4,30.31,South,180,0.0,0.0,73,0.00,,,0.00,meteobridge,2014-01-04 02:29:00,
2014-01-03 21:34:00,6.4,-0.4,30.31,South,180,0.0,0.0,73,0.00,,,0.00,meteobridge,2014-01-04 02:34:00,
2014-01-03 21:39:00,5.9,-0.9,30.31,South,180,0.0,0.0,73,0.00,,,0.00,meteobridge,2014-01-04 02:39:00,
2014-01-03 21:44:00,6.3,-0.6,30.31,West,270,0.0,0.0,73,0.00,,,0.00,meteobridge,2014-01-04 02:44:00,
2014-01-03 21:49:00,6.6,0.1,30.30,SE,135,0.7,0.7,74,0.00,,,0.00,meteobridge,2014-01-04 02:49:00,
2014-01-03 21:55:00,6.3,-0.2,30.31,South,180,0.7,0.7,74,0.00,,,0.00,meteobridge,2014-01-04 02:55:00,
2014-01-03 21:57:00,6.1,-0.8,30.31,South,180,0.0,0.0,73,0.00,,,0.00,meteobridge,2014-01-04 02:57:00,
2014-01-03 22:02:00,6.4,0.0,30.31,South,180,1.6,2.2,74,0.00,,,0.00,meteobridge,2014-01-04 03:02:00,
2014-01-03 22:07:00,7.0,0.1,30.32,North,0,0.0,0.0,73,0.00,,,0.00,meteobridge,2014-01-04 03:07:00,
2014-01-03 22:12:00,6.6,0.1,30.31,South,180,0.0,0.7,74,0.00,,,0.00,meteobridge,2014-01-04 03:12:00,
2014-01-03 22:18:00,6.6,0.1,30.31,South,180,0.0,0.0,74,0.00,,,0.00,meteobridge,2014-01-04 03:18:00,
2014-01-03 22:23:00,6.4,0.0,30.32,South,180,0.0,0.0,74,0.00,,,0.00,meteobridge,2014-01-04 03:23:00,
2014-01-03 22:28:00,6.3,-0.6,30.31,South,180,0.0,0.0,73,0.00,,,0.00,meteobridge,2014-01-04 03:28:00,
2014-01-03 22:33:00,6.6,-0.2,30.31,South,180,0.0,0.0,73,0.00,,,0.00,meteobridge,2014-01-04 03:33:00,
2014-01-03 22:38:00,6.8,0.0,30.31,South,180,0.0,0.0,73,0.00,,,0.00,meteobridge,2014-01-04 03:38:00,
2014-01-03 22:44:00,6.3,-0.6,30.31,South,180,0.0,0.0,73,0.00,,,0.00,meteobridge,2014-01-04 03:44:00,
2014-01-03 22:49:00,6.3,-0.6,30.31,South,180,0.0,0.0,73,0.00,,,0.00,meteobridge,2014-01-04 03:49:00,
2014-01-03 22:54:00,6.6,-0.2,30.31,West,270,0.7,0.7,73,0.00,,,0.00,meteobridge,2014-01-04 03:54:00,
2014-01-03 22:59:00,6.6,0.1,30.31,South,180,2.2,2.2,74,0.00,,,0.00,meteobridge,2014-01-04 03:59:00,
2014-01-03 23:04:00,6.3,-0.2,30.31,South,180,0.7,0.7,74,0.00,,,0.00,meteobridge,2014-01-04 04:04:00,
2014-01-03 23:09:00,6.8,0.0,30.31,West,270,0.0,0.0,73,0.00,,,0.00,meteobridge,2014-01-04 04:09:00,
2014-01-03 23:15:00,6.8,0.0,30.31,North,0,0.0,0.0,73,0.00,,,0.00,meteobridge,2014-01-04 04:15:00,
2014-01-03 23:20:00,6.3,-0.2,30.32,SE,135,0.0,0.0,74,0.00,,,0.00,meteobridge,2014-01-04 04:20:00,
2014-01-03 23:25:00,7.0,0.1,30.32,East,90,0.0,0.0,73,0.00,,,0.00,meteobridge,2014-01-04 04:25:00,
2014-01-03 23:30:00,7.0,0.1,30.31,South,180,0.0,0.0,73,0.00,,,0.00,meteobridge,2014-01-04 04:30:00,
2014-01-03 23:35:00,6.3,-0.2,30.32,West,270,0.7,1.6,74,0.00,,,0.00,meteobridge,2014-01-04 04:35:00,
2014-01-03 23:40:00,7.0,0.1,30.32,West,270,0.0,0.7,73,0.00,,,0.00,meteobridge,2014-01-04 04:40:00,
2014-01-03 23:46:00,7.3,0.9,30.32,West,270,0.0,0.0,74,0.00,,,0.00,meteobridge,2014-01-04 04:46:00,
2014-01-03 23:51:00,7.9,1.4,30.31,North,0,0.7,0.7,74,0.00,,,0.00,meteobridge,2014-01-04 04:51:00,
2014-01-03 23:56:00,8.2,1.8,30.32,NE,45,1.6,2.2,74,0.00,,,0.00,meteobridge,2014-01-04 04:56:00,